EUTELSAT HOTBIRD 13C

Last updated on Wed Oct 15 2025 00:02:45 GMT+0000 (Coordinated Universal Time)

1 33459U 08065A 25287.26992484 -.00000113 00000+0 00000+0 0 9995 2 33459 2.3150 82.0786 0005864 144.8021 240.8817 1.00271661 44889
UTC large
Height (km)
Speed (km/s)
/
Latitude / Longitude
Inclination (degrees)
Orbital Period (minutes)
Azimuth
Elevation
Range (km)
Doppler Factor

Next 0 passes for location: London (51.5072 / 0.1276)

Sorry there are no passes over London.